User: anonymous   Login
Location: Unspecified
(0.0000°N, 0.0000°E)
Time: 13:57:33
(UTC+00:00)
Language:

STARLINK-34642 - Orbit

View from above orbital plane
View from above orbital plane
View from above satellite
View from above satellite

Ground track
Ground track

The orbit data is extracted from the following two-line orbital elements,

1 64910U 25157G   25344.20551493  .00052397  00000-0  13092-2 0  9990
2 64910  53.1570  45.5605 0001541  60.6934 299.4225 15.39659406 22361
Epoch (UTC): 10 December 2025 04:55:56
Eccentricity: 0.0001541
inclination: 53.1570°
perigee height: 446 km
apogee height: 448 km
right ascension of ascending node: 45.5605°
argument of perigee: 60.6934°
revolutions per day: 15.39659406
mean anomaly at epoch: 299.4225°
orbit number at epoch: 2236

The dashed part of the orbit path shows where the satellite is in the earth's shadow,  

DLR